www.pogodaiklimat.ru

Погода и климат >> Архив погоды >> Австралия >> Западная Австралия >> Телфер


ПОГОДА в Телфере

  • Прогноз погоды в Телфере
  • Монитор погоды в Телфере

АРХИВ ПОГОДЫ в Телфере

Время (UTC), дата Ветер
(напр.,м/с)
 
Видим.   Явления Облачность Т
(С)
Тd
(С)
f
(%)
Тe
(С)
Тes
(С)
Комфортность P
(гПа)
Po
(гПа)
Тmin
(С)
Tmax
(С)
R
(мм)
R24
(мм)
S
(см)
22 11.08 ЮВ 6 н/о 3/0
[]
+14.6 -3.2 29 +13 +13 1020.1 986.2
00 12.08 ЮВ 7 н/о н/о +17.3 -2.4 26 +16 +16 1021.8 987.8
01 12.08 В 7 н/о н/о +21.1 -2.0 21 +20 +20 1022.2 988.2 +14.3
03 12.08 В 6 н/о н/о +25.4 -3.1 15 +23 +23 комфорт 1021.2 987.3
04 12.08 В 6 н/о н/о +26.3 -3.3 14 +24 +24 комфорт 1020.1 986.2
06 12.08 В 6 н/о н/о +27.5 -3.3 13 +25 +25 комфорт 1018.0 984.2
07 12.08 ЮВ 6 н/о н/о +27.6 -3.3 13 +25 +25 комфорт 1017.5 983.7
09 12.08 В 5 н/о н/о +26.6 -3.1 14 +24 +24 комфорт 1017.9 984.1
10 12.08 ЮВ 3 н/о н/о +23.3 -2.3 18 +22 +22 комфорт 1018.7 984.8
12 12.08 ЮВ 4 н/о н/о +20.4 -2.0 22 +20 +20 1020.0 986.1
13 12.08 ЮВ 4 н/о н/о +18.7 -2.3 24 +19 +19 1020.1 986.2 +28.6
15 12.08 ЮВ 3 н/о н/о +16.5 -3.0 26 +17 +17 1019.7 985.8
16 12.08 ЮВ 4 н/о н/о +17.2 -2.4 26 +17 +17 1019.6 985.7
18 12.08 ЮВ 4 н/о н/о +16.1 -2.4 28 +16 +16 1018.9 985.0
19 12.08 ЮВ 4 н/о н/о +12.3 -2.7 35 +11 +11 1019.1 985.2
21 12.08 ЮВ 4 н/о н/о +13.1 -3.6 31 +12 +12 1019.3 985.4
22 12.08 ЮВ 4 н/о н/о +12.3 -3.5 33 +11 +11 1019.8 985.9
00 13.08 В 4 н/о н/о +18.9 -3.9 21 +19 +19 1020.9 987.0
01 13.08 В 5 н/о н/о +23.0 -4.1 16 +21 +21 комфорт 1021.0 987.1 +10.4
03 13.08 В 6 н/о н/о +27.1 -2.7 14 +25 +25 комфорт 1019.6 985.7
04 13.08 С 2 н/о н/о +27.7 -2.2 14 +25 +25 комфорт 1018.6 984.7
09 13.08 ЮВ 4 н/о н/о +28.2 -2.8 13 +25 +25 комфорт 1016.6 982.8
10 13.08 ЮВ 4 н/о н/о +25.1 -2.5 16 +23 +23 комфорт 1017.0 983.2
12 13.08 ЮВ 3 н/о н/о +20.9 -2.9 20 +21 +21 комфорт 1018.1 984.3
13 13.08 В 3 н/о н/о +19.3 -2.9 22 +20 +20 1018.5 984.6 +29.8
15 13.08 В 3 н/о н/о +17.2 -4.1 23 +17 +17 1018.4 984.5
16 13.08 В 2 н/о н/о +17.0 -3.7 24 +17 +17 1018.0 984.2
18 13.08 В 2 н/о н/о +16.5 -3.6 25 +17 +17 1017.5 983.7
19 13.08 штиль 0 н/о н/о +16.0 -3.5 26 +16 +16 1017.7 983.9
21 13.08 СВ 2 н/о н/о +15.4 -5.0 24 +16 +16 1018.0 984.2
22 13.08 штиль 0 н/о н/о +14.7 -5.6 24 +15 +15 1018.9 985.0
00 14.08 СВ 3 н/о н/о +19.9 -4.4 19 +20 +20 1020.1 986.2
01 14.08 СВ 7 н/о н/о +23.7 -5.3 14 +22 +22 комфорт 1020.1 986.2 +14.3
03 14.08 С 6 н/о н/о +28.0 -5.2 11 +25 +25 комфорт 1018.6 984.7
04 14.08 С 7 н/о н/о +29.0 -4.4 11 +26 +26 жарко 1017.3 983.5
06 14.08 СЗ 5 н/о н/о +29.2 -3.1 12 +26 +26 жарко 1015.5 981.7
07 14.08 С 5 н/о н/о +29.8 -2.6 12 +27 +27 жарко 1014.9 981.2
09 14.08 С 4 н/о н/о +28.8 -2.3 13 +26 +26 жарко 1014.7 981.0
10 14.08 С 2 н/о 5/0
[]
+26.5 -3.1 14 +24 +24 комфорт 1015.4 981.6
12 14.08 СЗ 2 н/о н/о +23.5 -2.2 18 +22 +22 комфорт 1016.8 983.0
13 14.08 СЗ 2 н/о н/о +22.1 -1.9 20 +21 +21 комфорт 1016.9 983.1 +30.5
15 14.08 СВ 3 н/о н/о +17.0 -3.7 24 +17 +17 1017.4 983.6
16 14.08 штиль 0 н/о н/о +18.6 -2.3 24 +19 +19 1017.2 983.4
18 14.08 СЗ 2 н/о н/о +18.1 -0.7 28 +19 +19 1016.7 982.9
19 14.08 штиль 0 н/о 6/0
[]
+17.3 -0.4 30 +17 +17 1016.4 982.6
21 14.08 СЗ 2 н/о н/о +17.4 +1.4 34 +18 +18 1016.4 982.6
22 14.08 С 2 н/о 1/0
[]
+14.5 +0.4 38 +15 +15 1017.1 983.3
00 15.08 С 2 н/о н/о +20.9 +3.6 32 +22 +22 комфорт 1018.1 984.3
01 15.08 ЮЗ 1 н/о 9/0
[]
+23.0 +5.4 32 +23 +29 комфорт 1018.6 984.7 +14.0
03 15.08 З 4 н/о н/о +27.5 +8.4 30 +27 +27 жарко 1017.5 983.7
04 15.08 З 5 н/о 4/0 2000 м
[]
+28.5 +6.6 25 +28 +35 жарко 1016.4 982.6
06 15.08 СЗ 4 н/о н/о +28.1 +7.9 28 +28 +28 жарко 1014.8 981.1
07 15.08 З 3 н/о 10/0
[]
+28.1 +8.9 30 +28 +31 жарко 1014.1 980.4
09 15.08 ЮЗ 4 н/о н/о +27.3 +8.7 31 +27 +27 жарко 1014.2 980.5
10 15.08 З 4 н/о 10/0
[]
+26.9 +8.4 31 +27 +27 жарко 1014.7 981.0
12 15.08 ЮЗ 6 н/о н/о +23.3 +11.0 46 +26 +26 жарко 1016.9 983.1
13 15.08 ЮЗ 10 н/о сильн. ливневой дождь {туман} 10/0 2000 м
[]
+19.9 +14.0 69 +21 +21 комфорт 1017.8 984.0 +29.9
15 15.08 ЮЗ 3 н/о н/о +18.8 +14.7 77 +20 +20 1017.3 983.5
16 15.08 ЮВ 4 н/о ливневой дождь {туман} 9/9 300 м
[]
+17.7 +15.7 88 +18 +18 1017.6 983.8
18 15.08 ЮВ 7 н/о н/о +15.8 +15.2 96 +14 +14 1017.4 983.6
19 15.08 ЮВ 8 н/о в посл. час дождь со снегом {туман} 10/10 100 м
[]
+15.5 +14.9 96 +14 +14 1017.0 983.2
21 15.08 ЮВ 6 н/о н/о +14.8 +13.3 91 +13 +13 1017.5 983.7
22 15.08 ЮВ 6 н/о 10/10 200 м
[]
+14.6 +13.0 90 +13 +13 1018.0 984.2
00 16.08 ЮВ 8 н/о н/о +16.0 +12.2 78 +14 +14 1019.3 985.4
01 16.08 ЮВ 7 н/о 5/5 300 м
[]
+17.1 +11.8 71 +16 +17 1019.7 985.8 +14.4
03 16.08 ЮВ 6 н/о н/о +19.9 +11.4 58 +21 +21 комфорт 1019.3 985.4
04 16.08 ЮВ 6 н/о 3/3 600 м
[]
+21.6 +11.3 52 +24 +28 комфорт 1018.5 984.6
06 16.08 ЮВ 5 н/о н/о +22.8 +10.9 47 +25 +25 комфорт 1016.8 983.0
07 16.08 ЮВ 5 н/о {туман} 1/1 1000 м
[]
+22.7 +10.5 46 +25 +28 комфорт 1016.7 982.9
09 16.08 Ю 5 н/о н/о +22.8 +9.2 42 +24 +24 комфорт 1017.0 983.2
10 16.08 Ю 5 н/о н/о +21.3 +8.6 44 +22 +22 комфорт 1017.2 983.4
12 16.08 Ю 5 н/о н/о +19.8 +7.9 46 +21 +21 комфорт 1018.0 984.2
13 16.08 Ю 6 н/о н/о +19.1 +6.9 45 +19 +19 1018.2 984.4 +24.2
15 16.08 ЮВ 4 н/о н/о +16.3 +7.0 54 +16 +16 1018.4 984.5
16 16.08 ЮВ 4 н/о н/о +15.4 +7.2 58 +14 +14 1018.1 984.3
18 16.08 ЮВ 4 н/о н/о +13.7 +7.0 64 +12 +12 1017.8 984.0
19 16.08 ЮВ 4 н/о н/о +12.4 +6.7 68 +11 +11 1017.6 983.8
21 16.08 В 4 н/о н/о +11.2 +5.7 69 +9 +9 1017.5 983.7
22 16.08 В 3 н/о н/о +9.8 +5.2 73 +8 +8 1017.9 984.1
00 17.08 ЮВ 4 н/о н/о +16.9 +4.3 43 +17 +17 1019.3 985.4
01 17.08 ЮВ 4 н/о н/о +20.5 +3.3 32 +21 +21 комфорт 1019.9 986.0 +9.5
03 17.08 Ю 6 н/о н/о +23.4 -3.0 17 +22 +22 комфорт 1019.5 985.6
04 17.08 Ю 6 н/о н/о +24.0 -1.8 18 +22 +22 комфорт 1019.0 985.1
06 17.08 ЮВ 6 н/о н/о +25.4 -3.1 15 +23 +23 комфорт 1017.4 983.6
07 17.08 Ю 5 н/о н/о +26.0 -2.6 15 +24 +24 комфорт 1017.3 983.5
09 17.08 Ю 6 н/о н/о +24.9 -2.6 16 +23 +23 комфорт 1017.9 984.1
10 17.08 Ю 5 н/о н/о +22.8 -3.5 17 +21 +21 комфорт 1018.5 984.6
12 17.08 Ю 5 н/о н/о +20.4 -2.0 22 +20 +20 1020.0 986.1
13 17.08 Ю 6 н/о н/о +19.9 -2.4 22 +20 +20 1020.6 986.7 +27.1
15 17.08 Ю 6 н/о н/о +18.3 -1.5 26 +18 +18 1021.1 987.2
16 17.08 Ю 7 н/о н/о +18.2 -0.6 28 +18 +18 1021.0 987.1
18 17.08 ЮВ 8 н/о н/о +15.4 0.0 35 +14 +14 1021.0 987.1
19 17.08 ЮВ 7 н/о н/о +14.4 -0.5 36 +13 +13 1020.9 987.0
21 17.08 ЮВ 6 н/о н/о +12.8 -2.6 34 +11 +11 1021.6 987.6
22 17.08 ЮВ 7 н/о н/о +12.2 -2.4 36 +10 +10 1022.4 988.4
00 18.08 ЮВ 11 н/о н/о +14.4 -2.9 30 +12 +12 1023.9 989.9
01 18.08 ЮВ 13 н/о н/о +16.6 -2.5 27 +15 +15 1024.2 990.2 +12.0
03 18.08 ЮВ 12 н/о н/о +19.2 -3.0 22 +18 +18 1023.7 989.7
04 18.08 ЮВ 10 н/о н/о +20.4 -2.6 21 +19 +19 1022.9 988.9
06 18.08 ЮВ 10 н/о н/о +22.3 -3.9 17 +21 +21 комфорт 1021.1 987.2
07 18.08 ЮВ 11 н/о н/о +22.4 -5.5 15 +21 +21 комфорт 1020.5 986.6
09 18.08 ЮВ 10 н/о н/о +20.7 -3.7 19 +20 +20 1020.9 987.0
10 18.08 ЮВ 8 н/о н/о +19.1 -3.7 21 +18 +18 1021.8 987.8
12 18.08 ЮВ 5 н/о н/о +15.9 -4.1 25 +15 +15 1023.3 989.3
13 18.08 ЮВ 6 н/о н/о +15.4 -4.0 26 +14 +14 1023.5 989.5 +23.2
15 18.08 ЮВ 7 н/о н/о +14.1 -4.6 27 +12 +12 1023.7 989.7
16 18.08 ЮВ 9 н/о н/о +13.9 -4.8 27 +12 +12 1023.8 989.8
18 18.08 ЮВ 9 н/о н/о +12.3 -4.8 30 +10 +10 1023.7 989.7
19 18.08 ЮВ 8 н/о н/о +11.5 -4.2 33 +9 +9 1023.5 989.5
21 18.08 ЮВ 7 н/о н/о +10.5 -4.3 35 +7 +7 1024.2 990.2
22 18.08 ЮВ 8 н/о н/о +10.0 -3.6 38 +7 +7 1024.9 990.8

 

Местоположение метеостанции Телфер (Западная Австралия, Австралия): широта -21.71 долгота 122.21 высота над уровнем моря 292 м.

В архиве по умолчанию представлена погода в Телфере за последнюю неделю. Архивные данные за месяц целиком и за предыдущие месяцы, начиная с января 2011 года, Вы можете получить, выбрав интересующий диапазон дат из раскрывающегося списка и нажав кнопку "Ввод!".


*Определитесь, кто Вы:
робот инопланетянин человек

Внимание! Время в таблицах - всемирное. Для получения местного времени необходимо прибавить поправку, которая равна 8 ч.

Смотрите также архив погоды в соседних городах и на ближайших метеорологических станциях:

Погода в Марбл-баре (Западная Австралия, Австралия) (261 км)
Погода в Мандоре (Западная Австралия, Австралия) (262 км)
Погода в Ньюмане (Западная Австралия, Австралия) (311 км)
Погода в Порт-Хедленде Apardoo (Западная Австралия, Австралия) (401 км)
Погода в Бруме (Западная Австралия, Австралия) (418 км)
Погода в Робак Запад (Западная Австралия, Австралия) (424 км)
Погода в Параберду (Западная Австралия, Австралия) (486 км)
Погода на Базе ВВС Curtin (Западная Австралия, Австралия) (489 км)
Погода в Дерби (Северная территория, Австралия) (507 км)
Погода в Фицрой-Кроссинге (Западная Австралия, Австралия) (526 км)

Пояснения к столбцам:

Ветер - указаны скорость ветра в м/с - средняя за 10 мин, порывы в срок и между сроками (в фигурных скобках) и направление, откуда дует ветер: С - северный, СВ - северо-восточный, В - восточный, ЮВ - юго-восточный, Ю - южный, ЮЗ - юго-западный, З - западный, СЗ - северо-западный.
Видимость - горизонтальная дальность видимости в метрах или километрах. При видимости от 1 до 10 км при отсутствии осадков обычно наблюдается дымка, при ухудшении видимости до 1 км и менее - туман. В сухую погоду видимость может ухудшаться дымом, пылью или мглою.
Явления - указаны атмосферные явления, наблюдавшиеся в срок или в последний час перед сроком; фигурными скобками обозначены явления, наблюдавшиеся между сроками (за 1-3 часа до срока); квадратными скобками обозначены град или гололедные отложения с указанием их диаметра в мм.
Облачность - указаны через наклонную черту общая и нижняя облачность в баллах и высота нижней границы облаков в метрах; квадратными скобками обозначены формы облаков: Ci - перистые, Cs - перисто-слоистые, Cc - перисто-кучевые, Ac - высококучевые, As - высокослоистые, Sc - слоисто-кучевые, Ns - слоисто-дождевые, Cu - кучевые, Cb - кучево-дождевые. Подробнее классификацию облаков см. в Атласе облаков (PDF).
T - Температура воздуха - температура, измеренная на высоте 2 м над землей.
Td - Температура точки росы - температура, при понижении до которой содержащийся в воздухе водяной пар достигнет насыщения.
f - Относительная влажность воздуха - влажноcть воздуха, измеренная на высоте 2 м над землей.
Te - Эффективная температура - температура, которую ощущает одетый по сезону человек в тени. Характеристика душности погоды. При расчете учитывается влияние влажности воздуха и скорости ветра на теплоощущения человека.
Tes - Эффективная температура на солнце - температура, которую ощущает человек, с поправкой на солнечный нагрев. Характеристика знойности погоды. Зависит от высоты солнца над горизонтом, облачности и скорости ветра. Ночью, в пасмурную погоду, а также при ветре 12 м/с и более поправка равна нулю.
P - Атмосферное давление - приведенное к уровню моря атмосферное давление.
Po - Атмосферное давление - измеренное на уровне метеостанции атмосферное давление.
Tmin - Минимальная температура - минимум температуры воздуха на высоте 2 м над землей.
Tmax - Максимальная температура - максимум температуры воздуха на высоте 2 м над землей.
R - Количество осадков - Количество выпавших осадков за период времени, мм. При наведении курсора мыши на число - период времени, за который выпало указанное количество осадков.
R24 - Количество осадков - Количество выпавших осадков за 24 часа, мм.
S - Снежный покров - Высота снежного покрова, см. При наведении курсора мыши на число - состояние снежного покрова и степень покрытия местности в баллах.